Regional Weather Roundup
Issued by NWS

Home | Current Version | Previous Version | Text Only | Print | Product List | Glossary Off
Versions: 1 2 3 4 5 6 7 8 9 10 11 12 13 14 15 16 17 18 19 20 21 22 23 24 25 26 27 28 29 30 31 32 33 34 35 36 37 38 39 40 41 42 43 44 45 46 47 48 49 50

000
ASUS43 KFSD 222002
RWRSD

WEATHER ROUNDUP FOR SOUTH DAKOTA
NATIONAL WEATHER SERVICE SIOUX FALLS SD
300 PM CDT SUN APR 22 2018

NOTE: "FAIR" INDICATES FEW OR NO CLOUDS BELOW 12,000 FEET WITH NO
SIGNIFICANT WEATHER AND/OR OBSTRUCTIONS TO VISIBILITY.


SDZ001>005-009-010-012>017-222100-
NORTHWEST AND NORTH CENTRAL SOUTH DAKOTA

CITY           SKY/WX    TMP DP  RH WIND       PRES   REMARKS
BUFFALO          N/A     67  30  25 E9        30.04F
FAITH            N/A     64  39  39 VRB3      30.10F
MOBRIDGE       SUNNY     63  39  41 S15       30.12F
$$

SDZ012>016-024>037-041>051-057-063-072>074-222100-
SOUTHWEST AND SOUTH CENTRAL SOUTH DAKOTA

CITY           SKY/WX    TMP DP  RH WIND       PRES   REMARKS
RAPID CTY ARPT SUNNY     63  37  38 VRB6      30.10F
PIERRE         SUNNY     63  38  39 S18G24    30.15F
CUSTER         SUNNY     60  35  39 SE8       30.13F
ELLSWORTH AFB  SUNNY    N/A N/A N/A E3        30.10F
PHILIP         SUNNY     62  39  42 SE8       30.12F
PINE RIDGE     MOSUNNY   62  38  40 S5        30.12F
SPEARFISH      FAIR      61  41  48 VRB6G14   30.12F
WINNER         FAIR      60  38  43 S14       30.19F
$$

SDZ004>011-016>023-039-040-222100-
NORTHEAST SOUTH DAKOTA

CITY           SKY/WX    TMP DP  RH WIND       PRES   REMARKS
ABERDEEN       SUNNY     64  33  31 S16G26    30.20F
WATERTOWN      SUNNY     58  37  45 S14       30.22F
BROOKINGS      SUNNY     58  38  47 SE12G20   30.25F
SISSETON         N/A     62  39  42 S15G23    30.21F
$$

SDZ017-020-022-023-036>040-048>070-222100-
SOUTHEAST SOUTH DAKOTA

CITY           SKY/WX    TMP DP  RH WIND       PRES   REMARKS
SIOUX FALLS    MOSUNNY   62  34  35 E15G21    30.23F
HURON          SUNNY     61  36  39 S15G23    30.21
CHAMBERLAIN    SUNNY     60  38  43 S7        30.20F
MITCHELL       SUNNY     61  38  42 SE17      30.22F
YANKTON        SUNNY     61  35  37 SE12G18   30.21F
$$

ABBREVIATIONS USED IN REMARKS
   TC - TEMPERATURE IN CELSIUS
  WCI - WIND CHILL INDEX
   HX - HEAT INDEX
  VSB - VISIBILITY




USA.gov is the U.S. government's official web portal to all federal, state and local government web resources and services.